Other Surface Observations
Issued by NWS

Home | Current Version | Previous Version | Text Only | Print | Product List | Glossary On
Versions: 1 2 3 4 5 6 7 8 9 10 11 12 13 14 15 16 17 18 19 20 21 22 23 24 25 26 27 28 29 30 31 32 33 34 35 36 37 38 39 40 41 42 43 44 45 46 47 48 49 50
000
SXUS52 KTAE 072118
OSOTAE
OSOTAE
North Florida/South Alabama/Southwest Georgia Weather Roundup
National Weather Service Tallahassee Florida
400 PM EST WED DEC 07 2016

Note: "fair" indicates few or no clouds below 12,000 feet with no
significant weather and/or obstructions to visibility.

!FLZ017-115-028-034-025-072200
...North Florida...

CITY           SKY/WX    TMP DP  RH WIND       PRES   REMARKS
TALLAHASSEE    MOSUNNY   62  53  72 CALM      30.07S
APALACHICOLA   SUNNY     69  55  60 NW13G20   30.06S
PERRY          SUNNY     72  56  58 NW7       30.05S
CROSS CITY     MOSUNNY   70  57  64 W9        30.05S
JACKSONVILLE   MOSUNNY   72  57  59 W7        30.02S
$$

!FLZ112-006-005-002-011-072200
...Florida Panhandle...

CITY           SKY/WX    TMP DP  RH WIND       PRES   REMARKS
MARIANNA       SUNNY     64  51  62 NW7       30.06S
BONIFAY        NOT AVBL
PANAMA CITY NW FAIR      69  53  56 NW3       30.05S
TYNDALL AFB    SUNNY     66  56  70 W10       30.06S
TYND DRONE APT FAIR      64  58  80 W7        30.06S
DE FUNIAK SPR  FAIR      64  50  61 NW7       30.08R
EGLIN AFB      MOSUNNY   67  52  57 N10       30.06R
DESTIN         SUNNY     70  55  59 NW5       30.06S
HURLBURT       MOSUNNY   67  49  52 N9        30.05R
CRESTVIEW      SUNNY     63  49  60 NW10      30.09R
PENSACOLA      MOSUNNY   67  52  58 NW5       30.06S
$$

!ALZ063-066-072200
...South Alabama...

CITY           SKY/WX    TMP DP  RH WIND       PRES   REMARKS
DOTHAN         CLOUDY    57  52  83 NW8       30.11S
OZARK CAIRNS   CLOUDY    58  49  73 W8        30.08R
FT RUCKER HELI CLOUDY    58  49  72 NW6       30.08R
RUCKER HELI 3  NOT AVBL
RUCKER HELI 2  CLOUDY    58  49  72 NW6       30.08R
FLORALA APT      N/A     59  47  64 VRB7      30.09S
ANDALUSIA      PTSUNNY   64  48  56 NW9       30.09S
TROY           CLOUDY    53  49  86 W6        30.10R
EUFALA         CLOUDY    56  48  74 W3        30.08R
MOBILE         PTSUNNY   64  51  62 CALM      30.08S
$$

!GAZ120>161-072200
...Southwest and South Central Georgia...

CITY           SKY/WX    TMP DP  RH WIND       PRES   REMARKS
THOMASVILLE    CLOUDY    61  55  82 NW6       30.08S
BAINBRIDGE     PTSUNNY   61  50  67 NW6       30.08R
MOODY AFB      PTSUNNY   64  53  68 NW9       30.05R
VALDOSTA       SUNNY     64  55  72 VRB3      30.06R
MOULTRIE       CLOUDY    59  52  77 W9        30.08R
BLAKELY        CLOUDY    59  50  72 CALM      30.08S
ALBANY         CLOUDY    59  51  75 SW7       30.09R
TIFTON         CLOUDY    58  52  80 W8        30.06S
FITZGERALD     CLOUDY    61  54  77 W5        30.08R
CORDELE        CLOUDY    60  52  74 W8        30.07S
AMERICUS       CLOUDY    55  46  71 W7        30.08S
HOMERVILLE     FAIR      68  57  68 W8        30.05R
$$

!GMZ750-755-770-775-072200
...Coastal and Buoy Obs...

STATION/POSITION TIME  TEMP    WIND        PRES    VSBY  WAVE
                       AIR SEA DIR/SP/G                  HT/PER
                 (UTC) (F)     (DEG/KT/KT) (MB)    (MI)  (FT/S)
KEATON BEACH     2100   64     270/ 11/ 13 1017.7R
CEDAR KEY        2100   66     310/  4/  6 1018.5R
C TOWER          2100   63     310/ 13/ 13 1018.7S
APALACHICOLA BUO 2050   70 75  340/ 10/ 12 1017.8R         3/ 7
PANAMA CITY BUOY 2050   73 76              1018.3R         3/ 6
MOBILE BUOY      2100   66 75   60/  6/  8 1018.1
ORANGE BCH AL BU 2050   62 69  290/  8/ 10 1018.2F         2/ 7
$$




USA.gov is the U.S. government's official web portal to all federal, state and local government web resources and services.